Location: Pebble Beach Sunset Acres
(33.0837°N, 96.4508°W)
Time: 20:45:12
(UTC+00:00)

DELTA 2 R/B (1) - Pass Details

Date: 28 June 2022
Orbit: 790 x 803 km, 39.6° (Epoch: 11 August)

Event Time Altitude Azimuth Distance (km) Brightness Sun altitude
Rises 04:52:32 0° 292° (WNW) 3,299 7.4 -29.1°
Reaches altitude 10° 04:55:03 10° 288° (WNW) 2,369 6.5 -29.3°
Enters shadow 04:58:49 40° 265° (W) 1,161 4.5 -29.7°
